Change the Weather History Date:

Friday, October 26, 2012

  Actual Average Record
Temperature  
Mean Temperature 54 °F -  
Max Temperature 65 °F 45 °F 68 °F (1999)
Min Temperature 44 °F 32 °F 28 °F (2006)
Degree Days  
Heating Degree Days 10    
Growing Degree Days 4 (Base 50)    
Moisture  
Dew Point 41 °F    
Average Humidity 67    
Maximum Humidity 87    
Minimum Humidity 50    
Precipitation  
Precipitation 0.03 in 0.13 in - ()
Sea Level Pressure  
Sea Level Pressure 30.06 in    
Wind  
Wind Speed 11 mph ()    
Max Wind Speed 21 mph    
Max Gust Speed 29 mph    
Visibility 13.8 miles    
Events Rain    
Averages and records for this station are not official NWS values.
T = Trace of Precipitation, MM = Missing Value Source: Averaged Metar Reports

Daily Weather History Graph

Daily Weather History Graph

Search for Another Location

Airport or City:

Trip Planner

Search our weather history database for the weather conditions in past years. The results will help you decide how hot, cold, wet, or windy it might be!

Date:

Astronomy

Oct. 26, 2012 Rise Set
Actual Time 7:54 AM EDT 6:21 PM EDT
Civil Twilight 7:24 AM EDT 6:51 PM EDT
Nautical Twilight 6:50 AM EDT 7:25 PM EDT
Astronomical Twilight 6:16 AM EDT 7:59 PM EDT
Moon 4:41 PM EDT (10/26) 4:43 AM EDT (10/26)
Length of Visible Light 11h 26m
Length of Day
10h 26m
Waxing Gibbous, 91% of the Moon is Illuminated
Oct 26
Waxing Gibbous
Oct 29
Full
Nov 6
Last Quarter
Nov 13
New
Nov 20
First Quarter

Hourly Weather History & Observations

Time (EDT) Temp. Windchill Dew Point Humidity Pressure Visibility Wind Dir Wind Speed Gust Speed Precip Events Conditions
12:00 AM 64.4 °F - 48.2 °F 56% 29.83 in 15.0 mi South 13.8 mph - N/A   Partly Cloudy
1:00 AM 64.4 °F - 48.2 °F 56% 29.81 in 15.0 mi South 15.0 mph - N/A   Partly Cloudy
2:00 AM 63 °F - 49 °F 50% 29.82 in 15 mi South 10.4 mph - -   Scattered Clouds
2:00 AM 62.6 °F - 48.2 °F 59% 29.82 in 15.0 mi South 10.4 mph - N/A   Partly Cloudy
3:00 AM 64.4 °F - 50.0 °F 59% 29.82 in 15.0 mi South 15.0 mph - N/A   Partly Cloudy
4:00 AM 64.4 °F - 50.0 °F 59% 29.83 in 15.0 mi South 16.1 mph - N/A   Partly Cloudy
5:00 AM 66.2 °F - 51.8 °F 60% 29.86 in 15.0 mi SW 20.7 mph 28.8 mph N/A   Overcast
6:00 AM 51.8 °F - 46.4 °F 82% 29.92 in 15.0 mi West 15.0 mph 20.7 mph N/A Rain Light Rain
7:00 AM 48.2 °F - 44.6 °F 87% 29.99 in 4.0 mi West 16.1 mph 21.9 mph N/A Rain Light Rain
8:00 AM 48 °F - 44 °F 83% 30.02 in 6 mi West 5.8 mph - - Rain Light Drizzle
8:00 AM 48.2 °F - 44.6 °F 87% 30.02 in 6.0 mi West 5.8 mph - N/A   Light Drizzle
8:16 AM - - - N/A% - 8.0 mi West 9.2 mph - N/A Rain Light Rain Showers
9:00 AM 48.2 °F - 44.6 °F 87% 30.07 in 15.0 mi West 9.2 mph - N/A   Mostly Cloudy
9:28 AM - - - N/A% - 15.0 mi WNW 10.4 mph - N/A   Overcast
11:00 AM 48.2 °F - 42.8 °F 82% 30.13 in 15.0 mi WNW 6.9 mph - N/A Rain Light Rain Showers
11:52 AM - - - N/A% - 15.0 mi WNW 16.1 mph - N/A   Mostly Cloudy
12:00 PM 48.2 °F - 39.2 °F 71% 30.15 in 15.0 mi West 10.4 mph - N/A   Mostly Cloudy
1:00 PM 48.2 °F - 37.4 °F 66% 30.17 in 15.0 mi WNW 10.4 mph - N/A   Overcast
1:39 PM - - - N/A% - 15.0 mi West 13.8 mph - N/A Rain Light Rain Showers
2:00 PM 46 °F - 39 °F 70% 30.17 in 15 mi WNW 9.2 mph - - Rain Light Rain Showers
3:00 PM 48.2 °F - 37.4 °F 66% 30.18 in 15.0 mi WNW 12.7 mph - N/A   Mostly Cloudy
4:00 PM 46.4 °F 40.1 °F 35.6 °F 66% 30.19 in 15.0 mi NW 15.0 mph - N/A   Mostly Cloudy
5:00 PM 46.4 °F 41.1 °F 33.8 °F 62% 30.20 in 15.0 mi WNW 11.5 mph - N/A   Mostly Cloudy
6:00 PM 44.6 °F 38.4 °F 32.0 °F 61% 30.21 in 15.0 mi NW 12.7 mph - N/A   Mostly Cloudy
7:00 PM 44.6 °F 38.1 °F 33.8 °F 66% 30.21 in 15.0 mi WNW 13.8 mph - N/A   Mostly Cloudy
8:00 PM 45 °F - 33 °F 52% 30.23 in 15 mi NW 6.9 mph - -   Scattered Clouds
8:00 PM 44.6 °F 40.7 °F 33.8 °F 66% 30.23 in 15.0 mi NW 6.9 mph - N/A   Mostly Cloudy
9:00 PM 44.6 °F 40.7 °F 33.8 °F 66% 30.24 in 15.0 mi WNW 6.9 mph - N/A   Overcast
10:00 PM 44.6 °F 41.4 °F 33.8 °F 66% 30.24 in 15.0 mi NNW 5.8 mph - N/A   Overcast
11:00 PM 44.6 °F 40.7 °F 32.0 °F 61% 30.25 in 15.0 mi NNW 6.9 mph - N/A   Overcast